Year,Month,Day,Hour,Minute,Value (Times are PST for temperature in C)
2012,04,23,00,00,11.80
2012,04,23,00,01,11.80
2012,04,23,00,02,11.80
2012,04,23,00,03,11.80
2012,04,23,00,04,11.80
2012,04,23,00,05,11.80
2012,04,23,00,06,11.80
2012,04,23,00,07,11.80
2012,04,23,00,08,11.80
2012,04,23,00,09,11.80
2012,04,23,00,10,11.80
2012,04,23,00,11,11.90
2012,04,23,00,12,11.90
2012,04,23,00,13,11.90
2012,04,23,00,14,11.90
2012,04,23,00,15,11.90
2012,04,23,00,16,11.90
2012,04,23,00,17,11.90
2012,04,23,00,18,11.90
2012,04,23,00,19,11.90
2012,04,23,00,20,11.90
2012,04,23,00,21,11.90
2012,04,23,00,22,11.90
2012,04,23,00,23,11.90
2012,04,23,00,24,11.90
2012,04,23,00,25,11.90
2012,04,23,00,26,11.90
2012,04,23,00,27,11.80
2012,04,23,00,28,11.80
2012,04,23,00,29,11.80
2012,04,23,00,30,11.80
2012,04,23,00,31,11.80
2012,04,23,00,32,11.80
2012,04,23,00,33,11.80
2012,04,23,00,34,11.80
2012,04,23,00,35,11.80
2012,04,23,00,36,11.80
2012,04,23,00,37,11.80
2012,04,23,00,38,11.70
2012,04,23,00,39,11.70
2012,04,23,00,40,11.70
2012,04,23,00,41,11.70
2012,04,23,00,42,11.70
2012,04,23,00,43,11.70
2012,04,23,00,44,11.60
2012,04,23,00,45,11.60
2012,04,23,00,46,11.60
2012,04,23,00,47,11.60
2012,04,23,00,48,11.60
2012,04,23,00,49,11.50
2012,04,23,00,50,11.50
2012,04,23,00,51,11.50
2012,04,23,00,52,11.50
2012,04,23,00,53,11.50
2012,04,23,00,54,11.40
2012,04,23,00,55,11.40
2012,04,23,00,56,11.40
2012,04,23,00,57,11.40
2012,04,23,00,58,11.30
2012,04,23,00,59,11.30
2012,04,23,01,00,11.30
2012,04,23,01,01,11.20
2012,04,23,01,02,11.20
2012,04,23,01,03,11.20
2012,04,23,01,04,11.10
2012,04,23,01,05,11.10
2012,04,23,01,06,11.10
2012,04,23,01,07,11.00
2012,04,23,01,08,11.00
2012,04,23,01,09,11.00
2012,04,23,01,10,10.90
2012,04,23,01,11,10.90
2012,04,23,01,12,10.80
2012,04,23,01,13,10.80
2012,04,23,01,14,10.80
2012,04,23,01,15,10.80
2012,04,23,01,16,10.80
2012,04,23,01,17,10.70
2012,04,23,01,18,10.70
2012,04,23,01,19,10.70
2012,04,23,01,20,10.70
2012,04,23,01,21,10.60
2012,04,23,01,22,10.60
2012,04,23,01,23,10.60
2012,04,23,01,24,10.60
2012,04,23,01,25,10.50
2012,04,23,01,26,10.50
2012,04,23,01,27,10.50
2012,04,23,01,28,10.40
2012,04,23,01,29,10.40
2012,04,23,01,30,10.40
2012,04,23,01,31,10.30
2012,04,23,01,32,10.30
2012,04,23,01,33,10.30
2012,04,23,01,34,10.30
2012,04,23,01,35,10.30
2012,04,23,01,36,10.30
2012,04,23,01,37,10.20
2012,04,23,01,38,10.20
2012,04,23,01,39,10.20
2012,04,23,01,40,10.20
2012,04,23,01,41,10.20
2012,04,23,01,42,10.20
2012,04,23,01,43,10.10
2012,04,23,01,44,10.10
2012,04,23,01,45,10.10
2012,04,23,01,46,10.10
2012,04,23,01,47,10.10
2012,04,23,01,48,10.10
2012,04,23,01,49,10.10
2012,04,23,01,50,10.10
2012,04,23,01,51,10.10
2012,04,23,01,52,10.00
2012,04,23,01,53,10.00
2012,04,23,01,54,10.00
2012,04,23,01,55,9.90
2012,04,23,01,56,9.90
2012,04,23,01,57,9.90
2012,04,23,01,58,9.90
2012,04,23,01,59,9.90
2012,04,23,02,00,9.90
2012,04,23,02,01,9.90
2012,04,23,02,02,9.90
2012,04,23,02,03,9.80
2012,04,23,02,04,9.80
2012,04,23,02,05,9.80
2012,04,23,02,06,9.80
2012,04,23,02,07,9.70
2012,04,23,02,08,9.70
2012,04,23,02,09,9.70
2012,04,23,02,10,9.70
2012,04,23,02,11,9.70
2012,04,23,02,12,9.60
2012,04,23,02,13,9.60
2012,04,23,02,14,9.60
2012,04,23,02,15,9.60
2012,04,23,02,16,9.60
2012,04,23,02,17,9.60
2012,04,23,02,18,9.60
2012,04,23,02,19,9.60
2012,04,23,02,20,9.60
2012,04,23,02,21,9.60
2012,04,23,02,22,9.60
2012,04,23,02,23,9.60
2012,04,23,02,24,9.60
2012,04,23,02,25,9.60
2012,04,23,02,26,9.60
2012,04,23,02,27,9.60
2012,04,23,02,28,9.60
2012,04,23,02,29,9.60
2012,04,23,02,30,9.60
2012,04,23,02,31,9.60
2012,04,23,02,32,9.60
2012,04,23,02,33,9.60
2012,04,23,02,34,9.60
2012,04,23,02,35,9.60
2012,04,23,02,36,9.60
2012,04,23,02,37,9.60
2012,04,23,02,38,9.60
2012,04,23,02,39,9.60
2012,04,23,02,40,9.60
2012,04,23,02,41,9.70
2012,04,23,02,42,9.70
2012,04,23,02,43,9.70
2012,04,23,02,44,9.70
2012,04,23,02,45,9.70
2012,04,23,02,46,9.70
2012,04,23,02,47,9.70
2012,04,23,02,48,9.70
2012,04,23,02,49,9.70
2012,04,23,02,50,9.70
2012,04,23,02,51,9.70
2012,04,23,02,52,9.70
2012,04,23,02,53,9.70
2012,04,23,02,54,9.70
2012,04,23,02,55,9.70
2012,04,23,02,56,9.70
2012,04,23,02,57,9.70
2012,04,23,02,58,9.70
2012,04,23,02,59,9.70
2012,04,23,03,00,9.70
2012,04,23,03,01,9.70
2012,04,23,03,02,9.70
2012,04,23,03,03,9.70
2012,04,23,03,04,9.70
2012,04,23,03,05,9.70
2012,04,23,03,06,9.60
2012,04,23,03,07,9.60
2012,04,23,03,08,9.60
2012,04,23,03,09,9.60
2012,04,23,03,10,9.60
2012,04,23,03,11,9.70
2012,04,23,03,12,9.70
2012,04,23,03,13,9.70
2012,04,23,03,14,9.70
2012,04,23,03,15,9.70
2012,04,23,03,16,9.70
2012,04,23,03,17,9.70
2012,04,23,03,18,9.70
2012,04,23,03,19,9.70
2012,04,23,03,20,9.70
2012,04,23,03,21,9.70
2012,04,23,03,22,9.70
2012,04,23,03,23,9.70
2012,04,23,03,24,9.70
2012,04,23,03,25,9.70
2012,04,23,03,26,9.70
2012,04,23,03,27,9.70
2012,04,23,03,28,9.70
2012,04,23,03,29,9.70
2012,04,23,03,30,9.70
2012,04,23,03,31,9.70
2012,04,23,03,32,9.70
2012,04,23,03,33,9.70
2012,04,23,03,34,9.70
2012,04,23,03,35,9.70
2012,04,23,03,36,9.70
2012,04,23,03,37,9.70
2012,04,23,03,38,9.70
2012,04,23,03,39,9.70
2012,04,23,03,40,9.70
2012,04,23,03,41,9.70
2012,04,23,03,42,9.70
2012,04,23,03,43,9.70
2012,04,23,03,44,9.70
2012,04,23,03,45,9.70
2012,04,23,03,46,9.70
2012,04,23,03,47,9.70
2012,04,23,03,48,9.70
2012,04,23,03,49,9.70
2012,04,23,03,50,9.70
2012,04,23,03,51,9.70
2012,04,23,03,52,9.70
2012,04,23,03,53,9.70
2012,04,23,03,54,9.70
2012,04,23,03,55,9.70
2012,04,23,03,56,9.70
2012,04,23,03,57,9.70
2012,04,23,03,58,9.70
2012,04,23,03,59,9.70
2012,04,23,04,00,9.70
2012,04,23,04,01,9.70
2012,04,23,04,02,9.70
2012,04,23,04,03,9.70
2012,04,23,04,04,9.70
2012,04,23,04,05,9.70
2012,04,23,04,06,9.70
2012,04,23,04,07,9.70
2012,04,23,04,08,9.70
2012,04,23,04,09,9.70
2012,04,23,04,10,9.70
2012,04,23,04,11,9.70
2012,04,23,04,12,9.70
2012,04,23,04,13,9.70
2012,04,23,04,14,9.70
2012,04,23,04,15,9.70
2012,04,23,04,16,9.70
2012,04,23,04,17,9.70
2012,04,23,04,18,9.70
2012,04,23,04,19,9.70
2012,04,23,04,20,9.70
2012,04,23,04,21,9.70
2012,04,23,04,22,9.80
2012,04,23,04,23,9.70
2012,04,23,04,24,9.70
2012,04,23,04,25,9.80
2012,04,23,04,26,9.70
2012,04,23,04,27,9.70
2012,04,23,04,28,9.70
2012,04,23,04,29,9.70
2012,04,23,04,30,9.70
2012,04,23,04,31,9.70
2012,04,23,04,32,9.70
2012,04,23,04,33,9.70
2012,04,23,04,34,9.70
2012,04,23,04,35,9.70
2012,04,23,04,36,9.70
2012,04,23,04,37,9.70
2012,04,23,04,38,9.70
2012,04,23,04,39,9.70
2012,04,23,04,40,9.80
2012,04,23,04,41,9.70
2012,04,23,04,42,9.80
2012,04,23,04,43,9.80
2012,04,23,04,44,9.70
2012,04,23,04,45,9.70
2012,04,23,04,46,9.70
2012,04,23,04,47,9.70
2012,04,23,04,48,9.70
2012,04,23,04,49,9.70
2012,04,23,04,50,9.70
2012,04,23,04,51,9.70
2012,04,23,04,52,9.70
2012,04,23,04,53,9.70
2012,04,23,04,54,9.70
2012,04,23,04,55,9.70
2012,04,23,04,56,9.70
2012,04,23,04,57,9.70
2012,04,23,04,58,9.70
2012,04,23,04,59,9.70
2012,04,23,05,00,9.60
2012,04,23,05,01,9.70
2012,04,23,05,02,9.60
2012,04,23,05,03,9.70
2012,04,23,05,04,9.70
2012,04,23,05,05,9.70
2012,04,23,05,06,9.70
2012,04,23,05,07,9.70
2012,04,23,05,08,9.70
2012,04,23,05,09,9.70
2012,04,23,05,10,9.70
2012,04,23,05,11,9.70
2012,04,23,05,12,9.70
2012,04,23,05,13,9.70
2012,04,23,05,14,9.70
2012,04,23,05,15,9.70
2012,04,23,05,16,9.70
2012,04,23,05,17,9.70
2012,04,23,05,18,9.70
2012,04,23,05,19,9.60
2012,04,23,05,20,9.70
2012,04,23,05,21,9.70
2012,04,23,05,22,9.60
2012,04,23,05,23,9.60
2012,04,23,05,24,9.60
2012,04,23,05,25,9.60
2012,04,23,05,26,9.60
2012,04,23,05,27,9.60
2012,04,23,05,28,9.60
2012,04,23,05,29,9.60
2012,04,23,05,30,9.60
2012,04,23,05,31,9.60
2012,04,23,05,32,9.60
2012,04,23,05,33,9.60
2012,04,23,05,34,9.60
2012,04,23,05,35,9.60
2012,04,23,05,36,9.60
2012,04,23,05,37,9.60
2012,04,23,05,38,9.60
2012,04,23,05,39,9.60
2012,04,23,05,40,9.60
2012,04,23,05,41,9.60
2012,04,23,05,42,9.60
2012,04,23,05,43,9.50
2012,04,23,05,44,9.50
2012,04,23,05,45,9.50
2012,04,23,05,46,9.50
2012,04,23,05,47,9.50
2012,04,23,05,48,9.50
2012,04,23,05,49,9.50
2012,04,23,05,50,9.50
2012,04,23,05,51,9.60
2012,04,23,05,52,9.60
2012,04,23,05,53,9.60
2012,04,23,05,54,9.60
2012,04,23,05,55,9.60
2012,04,23,05,56,9.60
2012,04,23,05,57,9.60
2012,04,23,05,58,9.60
2012,04,23,05,59,9.60
2012,04,23,06,00,9.60
2012,04,23,06,01,9.60
2012,04,23,06,02,9.60
2012,04,23,06,03,9.60
2012,04,23,06,04,9.60
2012,04,23,06,05,9.60
2012,04,23,06,06,9.60
2012,04,23,06,07,9.60
2012,04,23,06,08,9.60
2012,04,23,06,09,9.60
2012,04,23,06,10,9.60
2012,04,23,06,11,9.60
2012,04,23,06,12,9.60
2012,04,23,06,13,9.60
2012,04,23,06,14,9.60
2012,04,23,06,15,9.60
2012,04,23,06,16,9.60
2012,04,23,06,17,9.60
2012,04,23,06,18,9.60
2012,04,23,06,19,9.70
2012,04,23,06,20,9.70
2012,04,23,06,21,9.70
2012,04,23,06,22,9.70
2012,04,23,06,23,9.70
2012,04,23,06,24,9.70
2012,04,23,06,25,9.70
2012,04,23,06,26,9.70
2012,04,23,06,27,9.70
2012,04,23,06,28,9.70
2012,04,23,06,29,9.70
2012,04,23,06,30,9.70
2012,04,23,06,31,9.80
2012,04,23,06,32,9.80
2012,04,23,06,33,9.80
2012,04,23,06,34,9.80
2012,04,23,06,35,9.80
2012,04,23,06,36,9.80
2012,04,23,06,37,9.80
2012,04,23,06,38,9.80
2012,04,23,06,39,9.80
2012,04,23,06,40,9.80
2012,04,23,06,41,9.80
2012,04,23,06,42,9.80
2012,04,23,06,43,9.80
2012,04,23,06,44,9.90
2012,04,23,06,45,9.90
2012,04,23,06,46,9.90
2012,04,23,06,47,9.90
2012,04,23,06,48,9.90
2012,04,23,06,49,9.90
2012,04,23,06,50,9.90
2012,04,23,06,51,9.90
2012,04,23,06,52,9.90
2012,04,23,06,53,9.90
2012,04,23,06,54,9.90
2012,04,23,06,55,9.90
2012,04,23,06,56,10.00
2012,04,23,06,57,10.00
2012,04,23,06,58,10.00
2012,04,23,06,59,10.00
2012,04,23,07,00,10.10
2012,04,23,07,01,10.10
2012,04,23,07,02,10.10
2012,04,23,07,03,10.10
2012,04,23,07,04,10.10
2012,04,23,07,05,10.10
2012,04,23,07,06,10.20
2012,04,23,07,07,10.20
2012,04,23,07,08,10.20
2012,04,23,07,09,10.20
2012,04,23,07,10,10.20
2012,04,23,07,11,10.20
2012,04,23,07,12,10.30
2012,04,23,07,13,10.30
2012,04,23,07,14,10.30
2012,04,23,07,15,10.30
2012,04,23,07,16,10.30
2012,04,23,07,17,10.40
2012,04,23,07,18,10.40
2012,04,23,07,19,10.40
2012,04,23,07,20,10.50
2012,04,23,07,21,10.50
2012,04,23,07,22,10.50
2012,04,23,07,23,10.60
2012,04,23,07,24,10.60
2012,04,23,07,25,10.60
2012,04,23,07,26,10.70
2012,04,23,07,27,10.70
2012,04,23,07,28,10.70
2012,04,23,07,29,10.80
2012,04,23,07,30,10.80
2012,04,23,07,31,10.80
2012,04,23,07,32,10.80
2012,04,23,07,33,10.80
2012,04,23,07,34,10.80
2012,04,23,07,35,10.80
2012,04,23,07,36,10.80
2012,04,23,07,37,10.80
2012,04,23,07,38,10.90
2012,04,23,07,39,10.90
2012,04,23,07,40,10.90
2012,04,23,07,41,10.90
2012,04,23,07,42,10.90
2012,04,23,07,43,11.00
2012,04,23,07,44,11.00
2012,04,23,07,45,11.00
2012,04,23,07,46,11.10
2012,04,23,07,47,11.10
2012,04,23,07,48,11.10
2012,04,23,07,49,11.10
2012,04,23,07,50,11.20
2012,04,23,07,51,11.20
2012,04,23,07,52,11.20
2012,04,23,07,53,11.20
2012,04,23,07,54,11.20
2012,04,23,07,55,11.30
2012,04,23,07,56,11.30
2012,04,23,07,57,11.30
2012,04,23,07,58,11.30
2012,04,23,07,59,11.40
2012,04,23,08,00,11.40
2012,04,23,08,01,11.40
2012,04,23,08,02,11.50
2012,04,23,08,03,11.50
2012,04,23,08,04,11.60
2012,04,23,08,05,11.60
2012,04,23,08,06,11.60
2012,04,23,08,07,11.70
2012,04,23,08,08,11.70
2012,04,23,08,09,11.70
2012,04,23,08,10,11.70
2012,04,23,08,11,11.70
2012,04,23,08,12,11.80
2012,04,23,08,13,11.80
2012,04,23,08,14,11.80
2012,04,23,08,15,11.80
2012,04,23,08,16,11.90
2012,04,23,08,17,11.90
2012,04,23,08,18,11.90
2012,04,23,08,19,11.90
2012,04,23,08,20,11.90
2012,04,23,08,21,11.90
2012,04,23,08,22,11.90
2012,04,23,08,23,12.00
2012,04,23,08,24,12.00
2012,04,23,08,25,12.00
2012,04,23,08,26,12.10
2012,04,23,08,27,12.10
2012,04,23,08,28,12.20
2012,04,23,08,29,12.20
2012,04,23,08,30,12.30
2012,04,23,08,31,12.40
2012,04,23,08,32,12.50
2012,04,23,08,33,12.50
2012,04,23,08,34,12.60
2012,04,23,08,35,12.70
2012,04,23,08,36,12.80
2012,04,23,08,37,13.00
2012,04,23,08,38,13.20
2012,04,23,08,39,13.30
2012,04,23,08,40,13.30
2012,04,23,08,41,13.30
2012,04,23,08,42,13.30
2012,04,23,08,43,13.20
2012,04,23,08,44,13.10
2012,04,23,08,45,13.10
2012,04,23,08,46,13.10
2012,04,23,08,47,13.10
2012,04,23,08,48,13.10
2012,04,23,08,49,13.10
2012,04,23,08,50,13.20
2012,04,23,08,51,13.20
2012,04,23,08,52,13.20
2012,04,23,08,53,13.30
2012,04,23,08,54,13.30
2012,04,23,08,55,13.40
2012,04,23,08,56,13.50
2012,04,23,08,57,13.50
2012,04,23,08,58,13.60
2012,04,23,08,59,13.60
2012,04,23,09,00,13.60
2012,04,23,09,01,13.70
2012,04,23,09,02,13.80
2012,04,23,09,03,13.90
2012,04,23,09,04,14.10
2012,04,23,09,05,14.20
2012,04,23,09,06,14.30
2012,04,23,09,07,14.50
2012,04,23,09,08,14.60
2012,04,23,09,09,14.70
2012,04,23,09,10,14.70
2012,04,23,09,11,14.70
2012,04,23,09,12,14.70
2012,04,23,09,13,14.80
2012,04,23,09,14,14.90
2012,04,23,09,15,15.00
2012,04,23,09,16,15.00
2012,04,23,09,17,15.00
2012,04,23,09,18,15.00
2012,04,23,09,19,15.00
2012,04,23,09,20,15.00
2012,04,23,09,21,15.00
2012,04,23,09,22,14.90
2012,04,23,09,23,14.70
2012,04,23,09,24,14.70
2012,04,23,09,25,14.60
2012,04,23,09,26,14.70
2012,04,23,09,27,14.80
2012,04,23,09,28,14.90
2012,04,23,09,29,15.00
2012,04,23,09,30,15.00
2012,04,23,09,31,15.00
2012,04,23,09,32,15.00
2012,04,23,09,33,15.00
2012,04,23,09,34,15.00
2012,04,23,09,35,15.00
2012,04,23,09,36,15.00
2012,04,23,09,37,15.00
2012,04,23,09,38,14.90
2012,04,23,09,39,14.70
2012,04,23,09,40,14.60
2012,04,23,09,41,14.50
2012,04,23,09,42,14.40
2012,04,23,09,43,14.30
2012,04,23,09,44,14.30
2012,04,23,09,45,14.30
2012,04,23,09,46,14.20
2012,04,23,09,47,14.20
2012,04,23,09,48,14.30
2012,04,23,09,49,14.30
2012,04,23,09,50,14.30
2012,04,23,09,51,14.20
2012,04,23,09,52,14.10
2012,04,23,09,53,14.00
2012,04,23,09,54,14.00
2012,04,23,09,55,14.00
2012,04,23,09,56,14.00
2012,04,23,09,57,13.90
2012,04,23,09,58,14.00
2012,04,23,09,59,14.00
2012,04,23,10,00,14.00
2012,04,23,10,01,14.00
2012,04,23,10,02,14.10
2012,04,23,10,03,14.10
2012,04,23,10,04,14.10
2012,04,23,10,05,14.10
2012,04,23,10,06,14.40
2012,04,23,10,07,15.00
2012,04,23,10,08,15.00
2012,04,23,10,09,15.10
2012,04,23,10,10,15.30
2012,04,23,10,11,15.40
2012,04,23,10,12,15.60
2012,04,23,10,13,15.70
2012,04,23,10,14,15.80
2012,04,23,10,15,15.80
2012,04,23,10,16,15.80
2012,04,23,10,17,15.80
2012,04,23,10,18,15.90
2012,04,23,10,19,15.90
2012,04,23,10,20,15.90
2012,04,23,10,21,15.80
2012,04,23,10,22,15.70
2012,04,23,10,23,15.60
2012,04,23,10,24,15.60
2012,04,23,10,25,15.60
2012,04,23,10,26,15.60
2012,04,23,10,27,15.60
2012,04,23,10,28,15.60
2012,04,23,10,29,15.70
2012,04,23,10,30,15.80
2012,04,23,10,31,15.70
2012,04,23,10,32,15.60
2012,04,23,10,33,15.60
2012,04,23,10,34,15.50
2012,04,23,10,35,15.40
2012,04,23,10,36,15.30
2012,04,23,10,37,15.20
2012,04,23,10,38,15.10
2012,04,23,10,39,15.00
2012,04,23,10,40,15.00
2012,04,23,10,41,15.00
2012,04,23,10,42,15.00
2012,04,23,10,43,15.00
2012,04,23,10,44,15.00
2012,04,23,10,45,15.00
2012,04,23,10,46,15.00
2012,04,23,10,47,14.80
2012,04,23,10,48,14.70
2012,04,23,10,49,14.70
2012,04,23,10,50,14.70
2012,04,23,10,51,14.70
2012,04,23,10,52,14.70
2012,04,23,10,53,14.70
2012,04,23,10,54,14.70
2012,04,23,10,55,14.80
2012,04,23,10,56,14.80
2012,04,23,10,57,14.80
2012,04,23,10,58,14.80
2012,04,23,10,59,14.80
2012,04,23,11,00,14.80
2012,04,23,11,01,14.80
2012,04,23,11,02,15.00
2012,04,23,11,03,15.00
2012,04,23,11,04,15.00
2012,04,23,11,05,15.00
2012,04,23,11,06,15.00
2012,04,23,11,07,14.90
2012,04,23,11,08,14.80
2012,04,23,11,09,14.80
2012,04,23,11,10,14.80
2012,04,23,11,11,14.80
2012,04,23,11,12,14.80
2012,04,23,11,13,14.80
2012,04,23,11,14,14.80
2012,04,23,11,15,14.90
2012,04,23,11,16,15.00
2012,04,23,11,17,15.00
2012,04,23,11,18,15.00
2012,04,23,11,19,15.00
2012,04,23,11,20,15.00
2012,04,23,11,21,15.10
2012,04,23,11,22,15.30
2012,04,23,11,23,15.50
2012,04,23,11,24,15.60
2012,04,23,11,25,15.60
2012,04,23,11,26,15.70
2012,04,23,11,27,15.80
2012,04,23,11,28,15.90
2012,04,23,11,29,15.90
2012,04,23,11,30,15.80
2012,04,23,11,31,15.80
2012,04,23,11,32,15.80
2012,04,23,11,33,15.90
2012,04,23,11,34,15.90
2012,04,23,11,35,15.90
2012,04,23,11,36,15.90
2012,04,23,11,37,15.90
2012,04,23,11,38,16.00
2012,04,23,11,39,16.10
2012,04,23,11,40,16.20
2012,04,23,11,41,16.20
2012,04,23,11,42,16.20
2012,04,23,11,43,16.20
2012,04,23,11,44,16.10
2012,04,23,11,45,16.00
2012,04,23,11,46,16.00
2012,04,23,11,47,16.00
2012,04,23,11,48,16.00
2012,04,23,11,49,16.10
2012,04,23,11,50,16.10
2012,04,23,11,51,16.10
2012,04,23,11,52,16.20
2012,04,23,11,53,16.20
2012,04,23,11,54,16.30
2012,04,23,11,55,16.40
2012,04,23,11,56,16.50
2012,04,23,11,57,16.50
2012,04,23,11,58,16.40
2012,04,23,11,59,16.40
2012,04,23,12,00,16.30
2012,04,23,12,01,16.30
2012,04,23,12,02,16.30
2012,04,23,12,03,16.30
2012,04,23,12,04,16.40
2012,04,23,12,05,16.40
2012,04,23,12,06,16.30
2012,04,23,12,07,16.10
2012,04,23,12,08,16.10
2012,04,23,12,09,16.00
2012,04,23,12,10,16.00
2012,04,23,12,11,16.00
2012,04,23,12,12,16.10
2012,04,23,12,13,16.20
2012,04,23,12,14,16.20
2012,04,23,12,15,16.30
2012,04,23,12,16,16.30
2012,04,23,12,17,16.40
2012,04,23,12,18,16.50
2012,04,23,12,19,16.60
2012,04,23,12,20,16.70
2012,04,23,12,21,16.60
2012,04,23,12,22,16.60
2012,04,23,12,23,16.60
2012,04,23,12,24,16.70
2012,04,23,12,25,16.70
2012,04,23,12,26,16.70
2012,04,23,12,27,16.80
2012,04,23,12,28,16.80
2012,04,23,12,29,16.80
2012,04,23,12,30,16.70
2012,04,23,12,31,16.60
2012,04,23,12,32,16.60
2012,04,23,12,33,16.60
2012,04,23,12,34,16.50
2012,04,23,12,35,16.50
2012,04,23,12,36,16.40
2012,04,23,12,37,16.40
2012,04,23,12,38,16.40
2012,04,23,12,39,16.40
2012,04,23,12,40,16.40
2012,04,23,12,41,16.30
2012,04,23,12,42,16.30
2012,04,23,12,43,16.30
2012,04,23,12,44,16.40
2012,04,23,12,45,16.40
2012,04,23,12,46,16.40
2012,04,23,12,47,16.50
2012,04,23,12,48,16.50
2012,04,23,12,49,16.50
2012,04,23,12,50,16.50
2012,04,23,12,51,16.40
2012,04,23,12,52,16.30
2012,04,23,12,53,16.30
2012,04,23,12,54,16.30
2012,04,23,12,55,16.30
2012,04,23,12,56,16.30
2012,04,23,12,57,16.20
2012,04,23,12,58,16.10
2012,04,23,12,59,16.10
2012,04,23,13,00,16.10
2012,04,23,13,01,16.20
2012,04,23,13,02,16.40
2012,04,23,13,03,16.50
2012,04,23,13,04,16.60
2012,04,23,13,05,16.70
2012,04,23,13,06,16.50
2012,04,23,13,07,16.30
2012,04,23,13,08,16.20
2012,04,23,13,09,16.20
2012,04,23,13,10,16.20
2012,04,23,13,11,16.10
2012,04,23,13,12,15.90
2012,04,23,13,13,15.80
2012,04,23,13,14,15.80
2012,04,23,13,15,15.90
2012,04,23,13,16,16.00
2012,04,23,13,17,16.20
2012,04,23,13,18,16.30
2012,04,23,13,19,16.50
2012,04,23,13,20,16.50
2012,04,23,13,21,16.50
2012,04,23,13,22,16.50
2012,04,23,13,23,16.50
2012,04,23,13,24,16.50
2012,04,23,13,25,16.40
2012,04,23,13,26,16.40
2012,04,23,13,27,16.40
2012,04,23,13,28,16.30
2012,04,23,13,29,16.30
2012,04,23,13,30,16.30
2012,04,23,13,31,16.30
2012,04,23,13,32,16.30
2012,04,23,13,33,16.40
2012,04,23,13,34,16.40
2012,04,23,13,35,16.50
2012,04,23,13,36,16.60
2012,04,23,13,37,16.60
2012,04,23,13,38,16.60
2012,04,23,13,39,16.50
2012,04,23,13,40,16.30
2012,04,23,13,41,16.10
2012,04,23,13,42,16.00
2012,04,23,13,43,15.90
2012,04,23,13,44,15.90
2012,04,23,13,45,15.90
2012,04,23,13,46,16.00
2012,04,23,13,47,16.00
2012,04,23,13,48,15.90
2012,04,23,13,49,15.80
2012,04,23,13,50,15.80
2012,04,23,13,51,15.80
2012,04,23,13,52,15.80
2012,04,23,13,53,15.80
2012,04,23,13,54,15.90
2012,04,23,13,55,16.00
2012,04,23,13,56,16.10
2012,04,23,13,57,16.20
2012,04,23,13,58,16.30
2012,04,23,13,59,16.40
2012,04,23,14,00,16.40
2012,04,23,14,01,16.40
2012,04,23,14,02,16.50
2012,04,23,14,03,16.60
2012,04,23,14,04,16.70
2012,04,23,14,05,16.80
2012,04,23,14,06,16.80
2012,04,23,14,07,16.90
2012,04,23,14,08,16.90
2012,04,23,14,09,16.90
2012,04,23,14,10,16.90
2012,04,23,14,11,16.90
2012,04,23,14,12,16.90
2012,04,23,14,13,16.90
2012,04,23,14,14,16.90
2012,04,23,14,15,16.90
2012,04,23,14,16,16.90
2012,04,23,14,17,16.90
2012,04,23,14,18,17.00
2012,04,23,14,19,17.00
2012,04,23,14,20,17.10
2012,04,23,14,21,17.20
2012,04,23,14,22,17.20
2012,04,23,14,23,17.30
2012,04,23,14,24,17.30
2012,04,23,14,25,17.30
2012,04,23,14,26,17.30
2012,04,23,14,27,17.30
2012,04,23,14,28,17.30
2012,04,23,14,29,17.30
2012,04,23,14,30,17.30
2012,04,23,14,31,17.20
2012,04,23,14,32,17.20
2012,04,23,14,33,17.30
2012,04,23,14,34,17.30
2012,04,23,14,35,17.40
2012,04,23,14,36,17.50
2012,04,23,14,37,17.50
2012,04,23,14,38,17.60
2012,04,23,14,39,17.70
2012,04,23,14,40,17.70
2012,04,23,14,41,17.80
2012,04,23,14,42,17.90
2012,04,23,14,43,18.00
2012,04,23,14,44,18.00
2012,04,23,14,45,18.10
2012,04,23,14,46,18.20
2012,04,23,14,47,18.10
2012,04,23,14,48,18.20
2012,04,23,14,49,18.20
2012,04,23,14,50,18.20
2012,04,23,14,51,18.20
2012,04,23,14,52,18.20
2012,04,23,14,53,18.20
2012,04,23,14,54,18.20
2012,04,23,14,55,18.20
2012,04,23,14,56,18.20
2012,04,23,14,57,18.20
2012,04,23,14,58,18.20
2012,04,23,14,59,18.10
2012,04,23,15,00,18.10
2012,04,23,15,01,18.10
2012,04,23,15,02,18.10
2012,04,23,15,03,18.20
2012,04,23,15,04,18.30
2012,04,23,15,05,18.40
2012,04,23,15,06,18.50
2012,04,23,15,07,18.60
2012,04,23,15,08,18.60
2012,04,23,15,09,18.60
2012,04,23,15,10,18.50
2012,04,23,15,11,18.40
2012,04,23,15,12,18.30
2012,04,23,15,13,18.30
2012,04,23,15,14,18.30
2012,04,23,15,15,18.30
2012,04,23,15,16,18.30
2012,04,23,15,17,18.20
2012,04,23,15,18,18.10
2012,04,23,15,19,18.10
2012,04,23,15,20,18.00
2012,04,23,15,21,17.90
2012,04,23,15,22,17.90
2012,04,23,15,23,17.80
2012,04,23,15,24,17.80
2012,04,23,15,25,17.80
2012,04,23,15,26,17.80
2012,04,23,15,27,17.80
2012,04,23,15,28,17.80
2012,04,23,15,29,17.80
2012,04,23,15,30,17.70
2012,04,23,15,31,17.70
2012,04,23,15,32,17.60
2012,04,23,15,33,17.60
2012,04,23,15,34,17.60
2012,04,23,15,35,17.60
2012,04,23,15,36,17.50
2012,04,23,15,37,17.50
2012,04,23,15,38,17.60
2012,04,23,15,39,17.60
2012,04,23,15,40,17.60
2012,04,23,15,41,17.60
2012,04,23,15,42,17.60
2012,04,23,15,43,17.60
2012,04,23,15,44,17.60
2012,04,23,15,45,17.60
2012,04,23,15,46,17.60
2012,04,23,15,47,17.60
2012,04,23,15,48,17.50
2012,04,23,15,49,17.40
2012,04,23,15,50,17.40
2012,04,23,15,51,17.20
2012,04,23,15,52,17.20
2012,04,23,15,53,17.10
2012,04,23,15,54,17.00
2012,04,23,15,55,17.00
2012,04,23,15,56,16.90
2012,04,23,15,57,16.90
2012,04,23,15,58,16.90
2012,04,23,15,59,16.90
2012,04,23,16,00,16.90
2012,04,23,16,01,16.90
2012,04,23,16,02,16.90
2012,04,23,16,03,16.90
2012,04,23,16,04,16.80
2012,04,23,16,05,16.90
2012,04,23,16,06,16.90
2012,04,23,16,07,16.90
2012,04,23,16,08,16.90
2012,04,23,16,09,16.90
2012,04,23,16,10,16.90
2012,04,23,16,11,16.90
2012,04,23,16,12,16.80
2012,04,23,16,13,16.80
2012,04,23,16,14,16.80
2012,04,23,16,15,16.80
2012,04,23,16,16,16.80
2012,04,23,16,17,16.90
2012,04,23,16,18,16.90
2012,04,23,16,19,17.00
2012,04,23,16,20,17.00
2012,04,23,16,21,17.10
2012,04,23,16,22,17.10
2012,04,23,16,23,17.10
2012,04,23,16,24,17.10
2012,04,23,16,25,17.10
2012,04,23,16,26,17.10
2012,04,23,16,27,17.10
2012,04,23,16,28,17.10
2012,04,23,16,29,17.00
2012,04,23,16,30,17.00
2012,04,23,16,31,16.90
2012,04,23,16,32,16.90
2012,04,23,16,33,16.90
2012,04,23,16,34,16.90
2012,04,23,16,35,16.90
2012,04,23,16,36,16.90
2012,04,23,16,37,16.90
2012,04,23,16,38,16.80
2012,04,23,16,39,16.80
2012,04,23,16,40,16.80
2012,04,23,16,41,16.90
2012,04,23,16,42,16.90
2012,04,23,16,43,17.00
2012,04,23,16,44,17.10
2012,04,23,16,45,17.10
2012,04,23,16,46,17.10
2012,04,23,16,47,17.10
2012,04,23,16,48,17.10
2012,04,23,16,49,17.10
2012,04,23,16,50,17.10
2012,04,23,16,51,17.10
2012,04,23,16,52,17.10
2012,04,23,16,53,17.10
2012,04,23,16,54,17.10
2012,04,23,16,55,17.10
2012,04,23,16,56,17.10
2012,04,23,16,57,17.00
2012,04,23,16,58,16.90
2012,04,23,16,59,16.90
2012,04,23,17,00,16.80
2012,04,23,17,01,16.70
2012,04,23,17,02,16.70
2012,04,23,17,03,16.60
2012,04,23,17,04,16.60
2012,04,23,17,05,16.50
2012,04,23,17,06,16.50
2012,04,23,17,07,16.50
2012,04,23,17,08,16.40
2012,04,23,17,09,16.40
2012,04,23,17,10,16.30
2012,04,23,17,11,16.30
2012,04,23,17,12,16.30
2012,04,23,17,13,16.30
2012,04,23,17,14,16.40
2012,04,23,17,15,16.30
2012,04,23,17,16,16.30
2012,04,23,17,17,16.30
2012,04,23,17,18,16.30
2012,04,23,17,19,16.30
2012,04,23,17,20,16.40
2012,04,23,17,21,16.40
2012,04,23,17,22,16.40
2012,04,23,17,23,16.40
2012,04,23,17,24,16.40
2012,04,23,17,25,16.40
2012,04,23,17,26,16.30
2012,04,23,17,27,16.30
2012,04,23,17,28,16.20
2012,04,23,17,29,16.10
2012,04,23,17,30,16.10
2012,04,23,17,31,16.00
2012,04,23,17,32,16.00